LA8QT Lodingen NO current weather conditions

sailwx.info

Wind from 206 at 13 knots

Air temperature 11.7° C
Dewpoint 10.4° C

Last reported at 2015-Aug-30 23:44 UTC.
Time now 2015-Aug-31 00:33 UTC

Location: N 68°28' E 016°04'.
View on Google Maps.

See reports from other nearby stations

  
Tides and Currents Weather Stations Pressure Air Temp Water Temp Dewpoint Dewpoint Depression Visibility Wind Speed Wind Dir Waves Ship Positions
date/time (UTC)wind fromknots sea level pressurealtimeterstation pressurevisibilityair tempwater tempwave heightnotes
2015-Aug-30 23:44 206 13 11.7
2015-Aug-30 23:29 196 13 11.7
2015-Aug-30 23:14 179 15 11.7
2015-Aug-30 22:59 183 13 11.7
2015-Aug-30 22:44 172 13 11.7
2015-Aug-30 22:29 141 14 11.7
2015-Aug-30 22:14 214 13 11.7
2015-Aug-30 21:59 187 13 11.7
2015-Aug-30 21:44 203 14 11.7
2015-Aug-30 21:29 204 13 11.7
2015-Aug-30 21:14 161 14 11.7
2015-Aug-30 20:59 184 14 11.7
2015-Aug-30 20:44 202 13 11.7
2015-Aug-30 20:29 206 11 11.7
2015-Aug-30 20:14 173 13 11.7
2015-Aug-30 19:59 222 13 11.7
2015-Aug-30 19:44 213 13 11.7
2015-Aug-30 19:29 226 16 11.7
2015-Aug-30 19:14 204 11 11.7
2015-Aug-30 18:59 165 13 11.7
2015-Aug-30 18:44 189 13 11.7
2015-Aug-30 18:28 189 15 12.2
2015-Aug-30 18:13 172 14 12.2
2015-Aug-30 17:58 188 13 12.8
2015-Aug-30 17:43 233 15 13.3
2015-Aug-30 17:30 206 15 13.3
2015-Aug-30 17:13 204 16 13.3
2015-Aug-30 16:58 206 18 13.3
2015-Aug-30 16:43 181 17 13.3
2015-Aug-30 16:28 216 19 13.3
2015-Aug-30 16:13 200 16 13.3
2015-Aug-30 15:58 187 17 13.3
2015-Aug-30 15:43 179 16 13.9
2015-Aug-30 15:28 191 18 13.9
2015-Aug-30 15:13 192 16 13.9
2015-Aug-30 14:58 151 15 13.9
2015-Aug-30 14:43 181 15 13.9
2015-Aug-30 14:28 189 14 13.9
2015-Aug-30 14:13 176 13 13.9
2015-Aug-30 13:58 164 16 13.3
2015-Aug-30 13:43 195 16 13.9
2015-Aug-30 13:28 203 15 13.9
2015-Aug-30 13:13 212 16 13.9
2015-Aug-30 12:58 196 15 13.9
2015-Aug-30 12:43 122 15 13.9
2015-Aug-30 12:28 203 15 14.4
2015-Aug-30 12:13 196 16 15.0
2015-Aug-30 11:58 171 16 14.4
2015-Aug-30 11:43 175 16 13.9
2015-Aug-30 11:28 202 15 13.9
2015-Aug-30 11:13 171 15 13.9
2015-Aug-30 10:58 217 14 13.9
2015-Aug-30 10:43 149 15 13.9
2015-Aug-30 10:28 188 13 13.9
2015-Aug-30 10:13 196 13 14.4
2015-Aug-30 09:58 162 14 14.4
2015-Aug-30 09:43 175 15 14.4
2015-Aug-30 09:28 194 13 14.4
2015-Aug-30 09:13 184 13 14.4
2015-Aug-30 08:58 177 16 13.9
2015-Aug-30 08:43 175 13 13.9
2015-Aug-30 08:28 177 15 13.9
2015-Aug-30 08:13 175 16 13.9
2015-Aug-30 07:58 214 15 13.9
2015-Aug-30 07:43 198 13 13.9
2015-Aug-30 07:28 181 15 13.9
2015-Aug-30 07:13 185 14 13.9
2015-Aug-30 06:58 192 15 13.9
2015-Aug-30 06:43 194 13 13.9
2015-Aug-30 06:28 188 14 13.3
2015-Aug-30 06:13 154 13 13.3
2015-Aug-30 05:58 204 14 13.3
2015-Aug-30 05:43 195 13 13.3
2015-Aug-30 05:28 185 14 13.3
2015-Aug-30 05:13 184 15 13.3
2015-Aug-30 04:58 184 14 13.3
2015-Aug-30 04:43 171 14 13.3
2015-Aug-30 04:28 164 16 13.3
2015-Aug-30 04:13 208 15 13.3
2015-Aug-30 03:58 179 14 13.3
2015-Aug-30 03:43 142 16 13.3
2015-Aug-30 03:28 177 16 13.3
2015-Aug-30 03:13 175 16 13.3
2015-Aug-30 02:58 204 15 13.3
2015-Aug-30 02:43 179 16 13.3
2015-Aug-30 02:28 185 15 13.3
2015-Aug-30 02:13 185 16 13.3
2015-Aug-30 01:58 194 17 13.3
2015-Aug-30 01:43 203 15 13.3
2015-Aug-30 01:28 203 14 13.3
2015-Aug-30 01:13 185 18 13.3
2015-Aug-30 00:58 219 15 12.8
2015-Aug-30 00:43 162 15 12.8
2015-Aug-30 00:28 168 14 12.8
2015-Aug-30 00:13 179 11 12.8
2015-Aug-29 23:58 175 12 12.8
2015-Aug-29 23:43 178 12 12.8
2015-Aug-29 23:27 199 15 12.8
2015-Aug-29 23:12 194 13 12.8
2015-Aug-29 22:57 198 14 12.8
2015-Aug-29 22:42 165 15 12.8
2015-Aug-29 22:27 157 14 12.2
2015-Aug-29 22:12 152 15 12.2
2015-Aug-29 21:57 165 18 12.2
2015-Aug-29 21:42 168 17 12.2
2015-Aug-29 21:27 264 13 12.2
2015-Aug-29 21:12 191 16 12.8
2015-Aug-29 20:57 144 15 12.2
2015-Aug-29 20:42 173 18 12.2
2015-Aug-29 20:27 174 17 12.8
2015-Aug-29 20:12 199 19 12.2
2015-Aug-29 19:57 175 19 12.2
2015-Aug-29 19:42 113 16 12.2
2015-Aug-29 19:27 203 16 12.2
2015-Aug-29 19:12 200 18 12.2
2015-Aug-29 18:57 167 18 12.2
2015-Aug-29 18:42 192 16 12.2
2015-Aug-29 18:27 183 17 12.2
2015-Aug-29 18:12 190 15 11.7
2015-Aug-29 17:57 193 16 11.7
2015-Aug-29 17:42 227 18 11.7
2015-Aug-29 17:27 159 19 12.2
2015-Aug-29 17:12 171 15 11.7
2015-Aug-29 16:57 192 18 11.7
2015-Aug-29 16:42 129 18 12.2
2015-Aug-29 16:27 191 13 12.2
2015-Aug-29 16:12 156 12 11.7
2015-Aug-29 15:57 184 10 11.7
2015-Aug-29 15:42 141 10 11.7
2015-Aug-29 15:27 201 12 11.7
2015-Aug-29 15:12 177 12 11.7
2015-Aug-29 14:57 222 13 12.2
2015-Aug-29 14:42 176 12 12.2
2015-Aug-29 14:27 184 15 12.2
2015-Aug-29 14:12 088 11 12.2
2015-Aug-29 13:57 179 11 12.2
2015-Aug-29 13:42 181 11 12.2
2015-Aug-29 13:27 083 12 12.2
2015-Aug-29 13:12 234 11 12.2
2015-Aug-29 12:57 180 8 11.7
2015-Aug-29 12:42 192 6 11.7
2015-Aug-29 12:26 173 8 11.7
2015-Aug-29 12:11 202 8 11.7
2015-Aug-29 11:56 190 8 11.7
2015-Aug-29 11:41 160 7 12.8
2015-Aug-29 11:26 177 6 13.3
2015-Aug-29 11:11 152 7 13.3
2015-Aug-29 10:56 152 8 12.8
2015-Aug-29 10:41 137 8 12.8
2015-Aug-29 10:26 135 7 13.3
2015-Aug-29 10:11 127 9 13.9
2015-Aug-29 09:56 126 8 14.4
2015-Aug-29 09:41 156 9 14.4
2015-Aug-29 09:26 154 9 14.4
2015-Aug-29 09:11 167 7 14.4
2015-Aug-29 08:56 146 6 14.4
2015-Aug-29 08:41 172 6 14.4
2015-Aug-29 08:26 159 2 13.9
2015-Aug-29 08:11 125 5 13.9
2015-Aug-29 07:56 153 2 13.9
2015-Aug-29 07:41 148 2 13.9
2015-Aug-29 07:26 161 2 13.9
2015-Aug-29 07:11 181 4 13.9
2015-Aug-29 06:56 177 6 13.9
2015-Aug-29 06:41 192 3 13.9
2015-Aug-29 06:26 186 2 13.9
2015-Aug-29 06:11 186 2 13.9
2015-Aug-29 05:56 164 3 13.9
2015-Aug-29 05:41 137 2 13.9
2015-Aug-29 05:26 173 3 13.3
2015-Aug-29 05:11 182 2 13.3
2015-Aug-29 04:56 164 1 13.9
2015-Aug-29 04:41 164 4 13.9
2015-Aug-29 04:26 146 4 13.9
2015-Aug-29 04:11 168 4 13.9
2015-Aug-29 03:56 148 6 13.9
2015-Aug-29 03:41 156 1 13.9
2015-Aug-29 03:26 203 0 13.3
2015-Aug-29 03:11 188 1 13.9
2015-Aug-29 02:56 188 4 13.9
2015-Aug-29 02:41 215 3 13.9
2015-Aug-29 02:26 198 3 13.9
2015-Aug-29 02:11 191 0 13.9
2015-Aug-29 01:56 194 3 13.9
2015-Aug-29 01:41 194 3 13.9
2015-Aug-29 01:26 184 3 13.9
2015-Aug-29 01:10 219 4 13.9
2015-Aug-29 00:55 164 0 13.9
2015-Aug-29 00:40 192 2 14.4
2015-Aug-29 00:25 191 2 14.4
2015-Aug-29 00:10 163 3 14.4